GFSSE_prec_cloud_336.txt.gz
Cloud_Cover
100 100 100 52 100 100 90 99 4 0 1 5 19 70 13 13 6 5 19 94 7 36 5 10 5 12 5 5 5 5 5 5 5 8 5 5 11 20 64 41 100 99 100
61 100 100 83 100 100 84 26 4 0 5 5 25 100 7 12 93 5 8 100 42 70 14 5 5 5 5 5 5 5 5 5 5 100 35 88 37 5 7 87 96 94 100
72 52 100 100 100 80 100 3 4 5 5 10 94 7 5 47 98 8 7 6 48 49 65 5 5 5 5 5 5 5 5 5 5 89 100 100 59 46 6 34 64 98 100
29 92 95 100 88 54 83 0 5 43 5 6 6 4 5 5 11 9 5 34 59 96 100 5 5 5 5 5 5 5 5 5 5 100 100 100 100 9 15 18 21 55 100
27 5 97 100 3 98 5 0 2 0 2 8 6 6 5 5 5 5 5 6 54 100 84 5 5 5 5 5 5 5 5 5 5 100 100 99 100 25 5 5 79 5 94
70 5 5 5 5 4 0 0 0 0 0 2 5 5 4 4 3 0 5 99 5 57 100 5 9 75 38 31 5 5 5 5 5 5 50 88 7 10 5 5 95 13 72
15 2 5 5 3 4 6 0 0 0 0 0 5 5 4 4 1 3 5 10 5 100 96 5 5 29 28 27 36 5 5 3 5 28 33 100 72 5 25 85 86 7 85
3 0 0 0 0 0 0 0 0 0 2 4 20 6 4 5 4 5 4 5 5 46 88 5 5 5 5 6 5 5 8 36 4 5 86 100 65 5 8 100 100 77 9
0 2 5 1 1 3 5 0 0 0 0 0 0 2 4 5 5 4 5 5 5 5 3 3 4 2 4 5 5 5 5 6 5 54 90 100 54 5 17 100 100 40 83
0 0 0 0 0 0 0 0 0 0 3 0 0 0 95 22 4 5 2 4 5 5 3 6 2 5 60 96 63 99 7 17 5 29 93 19 38 0 12 100 100 99 100
11 3 0 0 0 0 0 0 0 0 5 0 0 0 20 100 36 61 0 0 5 45 100 42 80 100 81 100 100 99 97 35 33 32 25 6 5 7 2 5 100 100 100
89 63 4 0 0 0 19 0 0 0 0 10 0 0 20 48 45 3 84 3 11 100 100 100 100 100 100 100 100 82 94 50 5 5 2 0 0 2 5 0 0 5 35
15 15 74 71 12 0 56 0 0 0 0 2 2 0 88 80 48 10 90 36 30 38 100 100 100 100 34 41 45 99 15 0 60 56 0 5 4 2 2 0 0 4 5
7 12 51 12 0 24 2 0 10 42 33 0 0 0 0 3 77 0 14 94 84 8 82 100 100 62 100 88 100 5 30 49 100 14 78 100 3 4 0 0 0 1 5
8 17 40 0 0 4 0 0 27 4 4 0 0 0 0 49 100 18 71 33 66 45 100 77 30 100 74 87 95 63 96 100 100 45 31 6 46 2 0 0 0 0 4
1 3 23 0 0 0 0 0 0 0 0 0 0 0 0 0 25 0 60 22 66 48 94 28 0 80 84 81 53 56 98 100 23 21 0 0 4 4 6 12 5 0 77
0 0 4 2 0 0 0 0 0 0 0 0 0 68 0 0 0 20 22 96 22 42 30 1 35 100 100 95 63 100 100 100 100 9 0 15 99 96 8 68 5 5 100
0 0 0 6 0 0 0 0 0 0 2 4 0 52 0 0 0 0 0 43 34 15 0 48 86 100 100 98 20 13 91 91 100 60 47 6 60 10 36 5 8 86 98
0 0 0 0 0 0 0 0 0 0 0 54 17 89 9 0 7 87 62 77 2 15 78 48 45 80 100 74 100 100 100 100 100 100 98 98 58 38 29 5 5 45 81
0 0 0 0 0 0 0 0 0 0 0 0 0 54 100 0 8 0 6 83 16 4 2 100 100 100 11 0 100 100 100 100 100 100 100 95 24 91 21 9 2 97 93
0 0 0 5 2 0 0 0 0 0 0 0 0 53 18 0 0 0 14 100 98 100 100 100 100 99 0 2 9 100 100 100 100 100 100 100 99 100 24 5 30 11 96
0 2 0 0 1 4 4 5 2 0 0 0 0 32 0 0 0 0 42 61 44 88 100 100 100 100 0 22 100 100 100 100 100 100 100 100 100 100 29 15 44 6 30
0 0 4 5 26 5 5 1 11 0 1 88 40 64 0 0 0 0 7 37 72 98 35 100 100 100 50 2 100 100 100 100 100 100 100 100 100 91 42 100 91 45 4
0 0 0 43 95 42 60 10 5 0 0 0 17 0 0 0 0 0 0 0 0 0 10 78 100 100 2 0 15 24 33 100 100 100 100 100 100 100 74 100 100 100 24
0 0 0 0 32 73 36 65 0 0 0 0 0 0 0 0 7 0 63 0 0 0 0 100 100 98 29 0 13 63 32 100 100 99 39 96 100 98 87 84 99 5 2
0 0 0 0 1 12 6 37 4 0 0 0 0 6 0 0 0 0 0 0 0 0 9 100 100 100 100 0 14 98 54 4 80 99 95 76 65 29 11 3 2 79 100

GFSSE_prec_cloud_339.txt.gz
Cloud_Cover
100 99 100 98 100 100 100 14 0 3 5 27 81 5 7 35 5 38 88 90 79 12 80 45 5 5 5 3 4 5 5 94 5 5 6 5 5 5 26 5 16 91 100
82 54 100 100 78 100 64 18 5 1 7 78 100 5 5 7 5 11 80 100 100 8 53 17 5 5 5 5 5 4 5 5 53 100 94 100 85 33 5 5 5 98 100
99 81 78 100 100 91 73 1 5 7 32 14 5 5 0 5 5 13 100 98 100 34 5 5 4 5 5 5 5 5 5 4 100 100 100 100 100 74 28 5 8 97 100
31 97 100 71 100 100 93 5 4 5 6 1 0 0 0 1 5 5 8 5 23 36 5 4 5 5 5 5 5 5 5 50 100 100 100 100 100 56 5 5 5 78 43
51 82 100 86 100 87 83 0 4 5 5 0 0 0 0 3 0 5 10 67 100 14 5 14 6 5 11 6 5 5 5 27 100 100 100 100 100 75 30 5 50 15 37
6 61 100 100 70 43 4 0 5 0 5 4 1 0 0 0 0 4 5 7 42 87 5 5 5 5 12 57 10 5 5 2 14 57 100 100 12 7 5 5 5 34 76
30 8 73 43 3 4 0 0 0 0 0 4 5 5 0 0 4 0 1 5 8 30 19 5 19 5 5 12 87 55 6 8 0 16 72 96 10 29 6 57 16 5 71
5 5 5 11 7 4 0 0 0 0 0 0 2 0 0 0 0 0 2 1 2 5 12 5 20 29 5 54 94 100 74 12 5 10 80 20 9 5 42 42 53 60 17
0 1 0 0 2 1 6 8 0 0 0 0 0 5 0 3 0 0 0 0 4 100 100 100 100 100 100 100 100 75 80 11 5 8 29 58 14 20 49 79 100 100 81
0 0 0 0 0 0 0 0 0 0 0 0 0 0 5 5 5 0 3 5 59 100 100 100 100 100 100 100 85 71 5 5 87 98 8 15 43 0 1 52 100 5 39
0 0 0 0 0 0 0 0 0 0 0 0 0 0 1 9 7 0 2 4 98 100 100 100 100 100 100 100 100 5 4 0 5 75 5 5 3 0 4 0 0 13 61
0 0 0 0 0 0 0 0 0 0 0 0 0 0 43 72 38 16 93 20 98 100 100 100 100 100 100 95 62 5 5 4 23 5 0 93 94 18 0 2 0 0 0
0 0 0 0 0 0 0 0 0 0 0 0 0 0 4 69 0 6 97 51 71 100 100 100 100 100 100 62 5 15 82 86 100 5 39 7 41 5 0 2 13 3 2
0 0 0 0 0 0 0 0 0 0 0 0 0 0 0 0 13 13 9 99 13 7 100 100 95 100 100 42 20 6 90 100 100 3 12 100 62 100 40 5 28 5 5
6 54 0 0 0 0 0 0 0 0 0 0 0 0 0 0 100 100 12 100 92 19 38 98 16 100 100 100 12 100 47 100 95 40 60 45 100 100 24 5 5 81 100
0 1 27 0 0 0 0 0 0 0 0 0 0 0 0 0 13 0 1 59 71 33 91 82 1 99 88 68 45 96 87 100 100 100 100 98 100 93 8 52 16 44 94
0 0 0 0 0 0 0 0 0 0 0 0 0 0 0 0 0 0 2 98 66 8 18 74 15 38 40 86 98 100 100 97 100 100 100 100 100 82 7 5 9 62 9
0 0 0 0 0 0 0 0 0 0 0 0 0 0 0 0 0 0 0 62 38 68 8 1 48 90 90 46 92 100 100 100 100 100 100 100 100 100 98 5 73 7 5
0 0 0 0 0 0 0 0 0 0 0 0 0 2 0 37 11 0 4 37 16 98 4 12 2 32 80 61 100 100 100 100 100 100 100 100 100 100 100 100 11 20 4
0 0 0 0 0 0 0 0 0 0 0 0 0 5 41 100 68 0 0 0 11 0 4 3 100 56 98 19 87 100 100 100 100 100 100 100 100 100 100 100 8 10 17
0 0 0 0 0 0 0 0 0 0 0 0 0 0 13 23 0 0 0 1 92 1 22 16 5 15 77 85 96 100 100 100 100 100 100 100 100 100 100 100 100 5 82
0 0 0 0 0 0 0 0 0 0 0 0 0 0 3 64 1 0 0 62 3 1 6 5 69 7 87 22 89 100 100 100 81 100 100 100 100 100 100 100 100 8 15
0 0 0 0 0 0 0 5 4 5 0 0 0 2 21 23 0 0 0 0 0 2 26 1 97 97 99 18 4 40 86 71 37 100 100 100 100 100 100 100 100 90 78
0 0 0 0 0 0 0 14 45 5 2 0 0 38 32 29 1 0 0 2 46 0 0 0 1 35 100 100 60 16 100 100 100 100 100 100 100 100 100 92 100 24 100
0 0 0 0 0 0 0 5 5 5 5 3 0 0 0 0 0 0 9 4 3 8 0 0 2 5 52 100 100 47 100 100 100 100 100 100 100 100 96 100 100 100 100
0 0 0 0 0 0 0 2 5 5 5 1 0 0 0 0 0 0 0 0 0 0 0 2 46 29 29 89 100 100 100 100 100 100 100 100 100 100 100 100 100 100 100

GFSSE_prec_cloud_342.txt.gz
Cloud_Cover
97 100 100 83 100 100 85 0 0 4 2 5 9 49 5 5 68 76 81 99 18 5 6 18 5 5 5 2 0 6 24 5 5 6 98 39 9 5 18 49 50 61 73
69 40 8 99 100 100 5 0 1 5 5 5 3 5 5 5 35 23 10 71 5 5 5 5 5 13 5 5 1 4 14 42 93 60 64 100 5 5 19 5 5 76 72
99 68 24 59 100 100 5 0 5 5 5 1 0 0 0 4 5 5 37 52 5 5 5 5 5 5 5 37 5 5 5 8 94 77 86 92 95 5 5 5 5 53 5
97 100 82 100 100 61 5 1 18 8 1 2 3 0 0 3 5 5 7 30 5 5 5 4 5 5 5 42 5 5 25 98 88 63 100 89 99 43 5 12 5 10 5
25 100 12 81 100 100 18 5 5 7 0 0 0 0 10 7 4 5 5 5 5 5 6 5 21 79 100 25 5 6 8 13 27 96 98 100 37 5 9 8 5 7 75
5 80 100 100 100 100 4 4 5 5 0 0 0 0 8 1 0 5 5 5 5 20 99 100 100 96 100 100 9 100 92 55 32 29 46 77 5 44 90 66 5 5 55
4 53 100 100 100 90 0 3 0 7 1 5 5 0 0 0 0 0 1 5 10 98 100 100 100 100 100 100 98 13 99 86 73 65 16 37 8 5 44 26 51 100 98
0 8 73 66 6 5 36 18 2 0 3 4 0 0 5 31 0 1 0 9 100 100 100 100 100 100 100 100 100 5 5 52 10 90 94 28 28 28 11 98 100 100 100
0 0 0 4 5 5 0 0 0 0 0 0 0 3 3 100 5 2 0 38 100 100 100 100 100 100 100 100 26 4 5 100 3 1 11 78 18 17 26 55 100 92 88
0 0 0 0 0 0 5 0 0 0 0 0 0 0 0 18 77 0 5 67 100 100 100 100 100 100 100 100 18 100 82 100 10 5 5 90 48 3 4 5 4 14 100
0 0 0 0 0 0 0 4 1 0 0 0 0 0 0 0 5 1 6 100 100 100 78 97 100 100 100 56 14 95 100 92 100 54 59 23 42 8 37 2 4 5 5
0 0 0 0 0 0 0 0 0 2 0 0 0 0 0 0 5 0 23 78 100 100 100 100 100 100 98 69 4 35 49 96 100 100 100 100 100 97 29 5 5 2 5
0 0 0 0 0 0 0 0 0 0 0 0 0 0 1 56 0 0 83 51 76 100 97 100 81 97 96 100 42 61 71 100 100 100 100 100 100 11 7 1 5 18 5
0 0 0 0 0 0 0 0 0 0 0 0 0 0 0 0 0 10 3 13 46 68 100 97 98 42 32 87 100 47 70 99 100 100 100 100 100 100 45 5 5 44 100
0 4 0 0 0 0 0 0 0 0 0 0 0 0 0 0 0 100 15 28 75 5 11 84 8 73 95 100 100 100 100 100 100 100 100 100 100 100 100 100 88 80 49
0 0 0 0 0 0 0 0 0 0 0 0 0 0 0 0 0 2 0 2 87 0 38 40 7 100 100 94 100 100 100 100 100 100 100 100 100 100 100 100 96 56 24
0 0 0 0 0 0 0 0 0 0 0 0 0 0 0 0 0 0 0 8 98 98 68 77 10 100 100 28 100 100 100 100 100 100 100 100 100 100 100 100 100 10 56
0 0 0 0 0 0 0 0 0 0 0 0 0 0 0 0 0 1 0 0 84 19 98 84 21 100 100 31 100 100 100 100 100 100 100 100 100 100 100 100 100 85 24
0 0 0 0 0 0 0 0 0 0 0 0 0 0 0 5 22 92 6 0 0 0 0 3 78 93 100 96 100 100 100 100 100 100 100 100 100 100 100 100 100 100 100
0 0 0 0 0 0 0 0 0 0 0 0 0 0 0 0 3 100 0 0 8 0 0 0 52 100 100 100 100 100 98 99 100 100 100 100 100 100 100 100 100 100 100
0 0 0 0 0 0 0 3 4 0 0 0 0 0 0 0 62 100 0 21 0 0 62 6 52 90 44 100 100 100 100 100 100 98 100 100 100 100 100 100 100 100 100
0 0 0 0 0 0 0 0 0 4 8 0 0 0 0 26 39 15 0 0 21 1 3 8 39 41 68 30 100 100 100 90 100 99 100 100 100 100 100 100 100 100 100
0 0 0 0 0 0 0 0 0 0 5 1 0 0 0 0 12 0 0 0 0 0 2 2 3 31 99 85 99 40 97 98 100 99 99 97 100 100 100 100 100 100 100
0 0 0 0 0 0 0 0 1 5 81 56 5 0 0 0 37 0 0 0 0 0 0 0 2 0 51 16 24 100 16 100 100 83 61 96 100 100 100 100 100 100 100
0 0 0 0 0 0 0 0 0 0 6 31 5 0 5 1 0 0 0 0 0 0 0 0 2 13 5 14 66 100 100 100 100 100 100 100 100 100 100 100 100 100 100
0 0 0 0 0 0 0 0 0 0 6 38 6 0 0 0 0 0 0 0 0 3 0 0 8 53 72 100 100 100 100 100 100 100 100 100 100 100 100 100 100 100 100

GFSSE_prec_cloud_345.txt.gz
Cloud_Cover
100 99 100 100 100 100 28 0 0 0 5 5 5 5 5 5 16 6 34 100 100 100 26 5 5 5 5 7 5 15 5 5 33 64 6 5 8 5 5 7 19 53 96
100 100 100 100 100 100 0 1 5 5 5 5 5 5 5 5 5 5 63 16 32 29 5 11 6 7 5 5 5 11 23 54 13 89 100 9 5 5 86 7 6 5 82
92 25 100 100 100 100 1 5 1 5 8 5 0 2 5 5 5 7 6 5 7 47 74 13 21 15 5 5 38 6 5 78 30 100 74 67 99 14 38 80 92 20 18
35 44 89 97 100 59 1 5 3 5 5 2 3 3 5 4 5 5 17 18 15 25 93 15 67 73 5 5 5 43 21 5 48 67 92 29 59 6 85 30 100 83 100
89 95 100 94 100 32 0 4 5 5 5 3 4 0 5 1 6 6 13 8 5 5 44 100 5 67 13 3 5 5 8 5 5 33 90 12 5 27 75 49 98 100 48
78 84 67 99 100 100 4 4 2 7 5 3 11 2 3 1 0 3 5 5 77 100 9 80 56 55 36 3 3 5 7 5 5 27 81 10 52 17 65 72 68 100 98
9 41 97 100 100 94 74 2 1 9 6 5 1 6 2 1 0 1 14 100 100 100 100 100 100 65 97 5 15 41 89 14 6 80 100 35 47 42 8 13 34 62 100
5 5 5 43 96 12 0 3 8 22 31 26 3 0 1 5 2 4 17 89 98 100 100 100 100 100 62 30 64 88 11 60 41 52 88 100 5 53 5 5 34 97 99
2 5 12 56 5 5 100 99 69 0 5 0 0 1 0 5 5 4 5 100 100 100 100 100 100 100 100 96 98 91 99 100 80 7 89 100 100 77 37 74 96 100 100
0 9 9 5 5 0 1 36 0 1 5 5 0 0 0 1 3 5 20 81 100 96 100 97 96 100 100 53 100 79 93 100 100 97 100 100 84 99 35 75 53 24 98
0 13 24 13 0 3 5 5 4 5 5 5 5 1 2 4 1 5 5 17 100 98 100 100 100 93 100 72 79 100 100 100 100 100 100 100 98 18 77 100 100 100 100
1 8 5 6 11 7 0 0 0 0 2 4 5 5 0 3 5 2 1 20 86 100 100 30 100 100 100 100 46 75 100 100 100 100 100 100 100 95 32 24 43 100 100
1 0 0 6 6 9 0 1 24 24 12 2 0 0 0 0 0 0 13 25 5 35 98 80 87 86 100 97 100 51 98 100 100 100 100 100 100 100 33 5 60 100 97
0 0 0 0 0 4 0 0 2 16 18 19 1 0 0 0 0 0 23 50 7 7 100 53 78 11 100 100 100 100 100 100 100 100 99 100 100 100 98 51 6 17 5
0 0 0 1 0 0 0 0 0 5 0 0 0 0 0 0 0 0 25 10 96 41 38 98 43 96 100 100 100 99 100 100 100 100 100 100 100 100 100 51 29 24 67
0 0 0 0 0 0 0 0 0 0 0 0 0 0 0 0 0 2 0 0 30 7 5 2 41 27 100 95 100 100 99 100 87 82 89 100 62 100 100 100 64 100 100
0 0 0 0 0 0 0 0 0 0 0 0 0 0 0 0 0 1 1 0 6 94 17 7 75 11 99 100 100 90 98 99 94 90 85 60 100 98 99 100 100 100 100
0 0 0 0 0 0 0 0 0 0 0 0 0 0 0 0 0 41 75 0 12 2 2 76 88 0 98 100 100 100 100 80 100 100 99 100 84 100 30 100 100 100 100
0 0 0 0 0 0 0 0 0 0 0 0 0 0 0 0 0 0 93 98 0 6 2 0 6 1 98 100 100 100 100 100 83 100 100 100 100 100 37 100 100 100 100
0 0 0 0 0 0 0 0 0 0 0 0 0 0 0 0 0 0 79 25 69 3 99 1 89 16 45 62 92 100 100 100 95 99 92 100 58 100 71 100 100 100 98
0 0 0 0 0 0 0 0 0 5 5 5 0 0 0 0 0 0 90 54 0 0 3 17 4 100 84 38 100 100 100 100 100 100 98 100 100 100 100 100 100 100 100
0 0 0 0 0 0 0 0 0 0 1 4 17 5 1 5 5 42 0 0 0 0 6 0 3 100 99 60 94 100 100 100 100 100 100 100 89 99 100 100 100 100 100
0 0 0 0 0 0 0 0 0 0 0 0 5 64 5 4 1 2 0 0 0 0 1 0 2 11 6 85 100 100 100 100 100 91 100 100 86 100 100 100 100 100 100
0 0 0 0 0 0 0 0 0 0 0 50 24 97 94 89 15 5 0 0 0 1 1 0 0 5 4 29 71 100 82 100 100 100 100 100 100 100 100 100 100 100 100
0 2 0 0 0 0 0 0 0 0 0 3 48 100 100 59 5 0 0 0 0 6 0 0 0 0 2 4 15 100 54 98 100 100 100 100 100 100 100 100 100 100 100
1 4 0 0 4 4 0 0 0 0 0 0 0 30 58 49 5 1 0 0 0 0 0 0 0 0 0 5 9 72 58 100 100 100 100 100 100 100 100 100 100 100 100